Weather History for Norfolk, VA

Change the Weather History Date:

Wednesday, October 5, 2011

  Actual Average Record
Temperature  
Mean Temperature 68 °F 66 °F  
Max Temperature 76 °F 74 °F 93 °F (1941)
Min Temperature 60 °F 58 °F 40 °F (1974)
Degree Days  
Heating Degree Days 0 2  
Month to date heating degree days 29 10  
Since 1 July heating degree days 30 21  
Cooling Degree Days 3 3  
Month to date cooling degree days 3 17  
Year to date cooling degree days 2044 1582  
Growing Degree Days 16 (Base 50)    
Moisture  
Dew Point 54 °F    
Average Humidity 65    
Maximum Humidity 84    
Minimum Humidity 46    
Precipitation  
Precipitation 0.00 in 0.12 in 2.24 in (1948)
Month to date precipitation 0.22 0.56  
Year to date precipitation 45.79 37.26  
Snow  
Snow 0.00 in 0.00 in 0.00 in (2002)
Month to date snowfall 0.0 0.0  
Since 1 July snowfall 0.0 0.0  
Snow Depth 0.00 in    
Sea Level Pressure  
Sea Level Pressure 30.18 in    
Wind  
Wind Speed 6 mph (NNW)    
Max Wind Speed 15 mph    
Max Gust Speed 21 mph    
Visibility 10 miles    
Events      
T = Trace of Precipitation, MM = Missing Value Source: NWS Daily Summary

Daily Weather History Graph

Daily Weather History Graph

Search for Another Location

Airport:

Trip Planner

Search our weather history database for the weather conditions in past years. The results will help you decide how hot, cold, wet, or windy it might be!

Date:

Astronomy

Oct. 05, 2011 Rise Set
Actual Time 7:03 AM EDT 6:42 PM EDT
Civil Twilight 6:37 AM EDT 7:08 PM EDT
Nautical Twilight 6:07 AM EDT 7:38 PM EDT
Astronomical Twilight 5:37 AM EDT 8:08 PM EDT
Moon 3:13 PM EDT (10/5) 12:56 AM EDT (10/5)
Length of Visible Light 12h 31m
Length of Day
11h 39m
Waxing Gibbous, 66% of the Moon is Illuminated
Oct 5
Waxing Gibbous
Oct 11
Full
Oct 19
Last Quarter
Oct 26
New
Nov 2
First Quarter

Hourly Weather History & Observations

Time (EDT) Temp. Dew Point Humidity Pressure Visibility Wind Dir Wind Speed Gust Speed Precip Events Conditions
12:51 AM 62.1 °F 52.0 °F 70% 30.15 in 10.0 mi NW 3.5 mph - N/A   Clear
1:51 AM 61.0 °F 53.1 °F 75% 30.16 in 10.0 mi NW 4.6 mph - N/A   Clear
2:51 AM 60.1 °F 53.1 °F 78% 30.16 in 10.0 mi NW 3.5 mph - N/A   Clear
3:51 AM 60.1 °F 52.0 °F 75% 30.16 in 10.0 mi Variable 3.5 mph - N/A   Clear
4:51 AM 60.1 °F 52.0 °F 75% 30.17 in 10.0 mi NW 5.8 mph - N/A   Clear
5:51 AM 60.1 °F 53.1 °F 78% 30.18 in 10.0 mi NNW 4.6 mph - N/A   Clear
6:51 AM 61.0 °F 54.0 °F 78% 30.19 in 10.0 mi NNW 8.1 mph - N/A   Partly Cloudy
7:51 AM 62.1 °F 55.0 °F 78% 30.20 in 10.0 mi NNW 8.1 mph - N/A   Partly Cloudy
8:51 AM 64.0 °F 54.0 °F 70% 30.21 in 10.0 mi NNW 6.9 mph - N/A   Partly Cloudy
9:51 AM 64.9 °F 53.1 °F 65% 30.21 in 10.0 mi North 11.5 mph 18.4 mph N/A   Partly Cloudy
10:51 AM 68.0 °F 52.0 °F 56% 30.21 in 10.0 mi NW 9.2 mph - N/A   Clear
11:51 AM 70.0 °F 52.0 °F 53% 30.20 in 10.0 mi Variable 5.8 mph - N/A   Clear
12:51 PM 71.1 °F 53.1 °F 53% 30.19 in 10.0 mi North 9.2 mph - N/A   Clear
1:51 PM 72.0 °F 54.0 °F 53% 30.16 in 10.0 mi North 9.2 mph - N/A   Clear
2:51 PM 73.9 °F 55.0 °F 52% 30.15 in 10.0 mi North 6.9 mph - N/A   Clear
3:51 PM 73.9 °F 55.0 °F 52% 30.14 in 10.0 mi NNE 4.6 mph - N/A   Clear
4:51 PM 73.9 °F 51.1 °F 45% 30.13 in 10.0 mi Variable 3.5 mph - N/A   Clear
5:51 PM 73.9 °F 51.1 °F 45% 30.14 in 10.0 mi Variable 3.5 mph - N/A   Clear
6:51 PM 70.0 °F 53.1 °F 55% 30.15 in 10.0 mi NW 3.5 mph - N/A   Clear
7:51 PM 64.9 °F 57.0 °F 75% 30.16 in 10.0 mi Calm Calm - N/A   Clear
8:51 PM 63.0 °F 57.0 °F 81% 30.17 in 10.0 mi Calm Calm - N/A   Clear
9:51 PM 64.0 °F 57.9 °F 80% 30.19 in 10.0 mi Calm Calm - N/A   Clear
10:51 PM 63.0 °F 57.0 °F 81% 30.21 in 10.0 mi Calm Calm - N/A   Clear
11:51 PM 66.0 °F 55.9 °F 70% 30.22 in 10.0 mi NNW 4.6 mph - N/A   Clear